Find Starlink 2559

NORAD ID: 48298 Int'l Des: 2021-036 Owner: SPXS Country: US Constellation: starlink operational
LEOCIRCULAR

現在のビュー

3D地球を読み込み中...

About Starlink 2559

Starlink 2559 (NORAD 48298) is a starlink constellation satellite (v1.0) launched Apr 29, 2021 by SPXS of US. It operates in LEO, CIRCULAR orbit with a mass of 260.00 kg.

次回通過

Passes for default location (London). Set your location on the main map for personalized predictions.

高度履歴

Loading altitude history...

軌道要素

1 48298U 21036Y 26252.41471433 .00037814 00000-0 85746-3 0 9993
2 48298 53.1556 295.3455 0001229 61.0393 299.0736 15.42735776296636
Epoch: Sep 9, 2026 • Age: 21 hours

現在のステータス

高度 443.6 km
遠地点 / 近地点 N/A
速度 7.65 km/s
衛星直下点 53.12°N, 72.69°W
打ち上げ日 Apr 29, 2021
運用期間 5.3 years
タイプ internet

技術仕様

分類 Payload
質量 260.00 kg
乾燥質量 248.00 kg
総質量 260.00 kg
長さ 0.20 m
直径 2.80 m
スパン 9.00 m
形状 Box + pan
製造者 SPXS
バスタイプ Starlink
フェーズステータス In Orbit
所有者/国 SPXS/US

Most Searched